Location: Newark
(35.9031°N, 139.7175°E)
Time: 13:34:21
(UTC+00:00)

Transit 2A - Pass Details

Date: 30 May 2020
Orbit: 592 x 967 km, 66.7° (Epoch: 06 July)

Event Time Altitude Azimuth Distance (km) Brightness Sun altitude
Rises 14:38:53 0° 316° (NW) 3,612 10.1 -32.2°
Reaches altitude 10° 14:42:03 10° 301° (WNW) 2,691 9.1 -32.2°
Enters shadow 14:44:50 19° 276° (W) 2,139 8.3 -32.2°
